THY2474 LTFM-LTDB

Flight info

Callsign THY2474
Flight time N/A
Altitude 35000
Route VICEN1E/36 VICEN UT57 VEVUD UT341 BAG UW75 AZBUL UL601 URGUP UW75 KEMER
Aircraft A320/M-SDE3FGHIRWY/LB1

Departure

Time 2026-05-06 20:52
Airport İstanbul Airport (LTFM)

Arrival

Time N/A
Airport Çukurova International Airport (LTDB)
Time Latitude Longitude Altitude Speed Heading
2026-05-06 20:26 41.26095 28.74910 334 ft 0 kts 251°
2026-05-06 20:40 41.26099 28.74927 334 ft 2 kts 250°
2026-05-06 20:40 41.26104 28.74945 334 ft 2 kts 251°
2026-05-06 20:41 41.26109 28.74964 334 ft 2 kts 251°
2026-05-06 20:41 41.26114 28.74983 334 ft 2 kts 251°
2026-05-06 20:41 41.26114 28.75002 334 ft 2 kts 296°
2026-05-06 20:41 41.26104 28.75018 334 ft 1 kts 333°
2026-05-06 20:42 41.26098 28.75021 334 ft 1 kts 348°
2026-05-06 20:42 41.26094 28.75022 334 ft 0 kts 343°
2026-05-06 20:48 41.26103 28.75018 334 ft 2 kts 343°
2026-05-06 20:48 41.26121 28.75011 334 ft 3 kts 345°
2026-05-06 20:49 41.26148 28.75000 334 ft 4 kts 340°
2026-05-06 20:49 41.26185 28.74988 334 ft 5 kts 360°
2026-05-06 20:49 41.26223 28.75014 334 ft 7 kts 58°
2026-05-06 20:49 41.26229 28.75083 334 ft 8 kts 87°
2026-05-06 20:50 41.26229 28.75164 334 ft 9 kts 89°
2026-05-06 20:50 41.26230 28.75255 334 ft 10 kts 89°
2026-05-06 20:50 41.26231 28.75355 334 ft 11 kts 89°
2026-05-06 20:50 41.26232 28.75462 334 ft 12 kts 90°
2026-05-06 20:51 41.26233 28.75545 334 ft 4 kts 89°
2026-05-06 20:51 41.26234 28.75590 334 ft 5 kts 89°
2026-05-06 20:51 41.26238 28.75644 334 ft 6 kts 68°
2026-05-06 20:51 41.26278 28.75671 334 ft 7 kts 358°
2026-05-06 20:52 41.26438 28.75668 334 ft 56 kts 359°
2026-05-06 20:52 41.27061 28.75655 334 ft 122 kts 359°
2026-05-06 20:52 41.28092 28.75628 446 ft 163 kts 359°
2026-05-06 20:52 41.29240 28.75628 980 ft 169 kts
2026-05-06 20:53 41.30406 28.75858 1621 ft 173 kts 22°
2026-05-06 20:53 41.31494 28.76617 2267 ft 180 kts 35°
2026-05-06 20:53 41.32299 28.77904 2772 ft 196 kts 60°
2026-05-06 20:53 41.33054 28.79501 3250 ft 212 kts 42°
2026-05-06 20:54 41.34357 28.80509 3670 ft 230 kts 19°
2026-05-06 20:54 41.35932 28.81272 4248 ft 249 kts 19°
2026-05-06 20:54 41.37495 28.82357 4933 ft 264 kts 40°
2026-05-06 20:54 41.38442 28.84414 5821 ft 276 kts 73°
2026-05-06 20:55 41.38547 28.86959 6774 ft 281 kts 88°
2026-05-06 20:55 41.38479 28.89543 7634 ft 286 kts 91°
2026-05-06 20:55 41.37928 28.92095 8457 ft 298 kts 118°
2026-05-06 20:55 41.36478 28.94093 9321 ft 305 kts 148°
2026-05-06 20:56 41.34507 28.94966 10130 ft 309 kts 176°
2026-05-06 20:56 41.32311 28.94989 10785 ft 319 kts 182°
2026-05-06 20:56 41.30037 28.94923 11202 ft 337 kts 181°
2026-05-06 20:56 41.27653 28.94890 11574 ft 355 kts 181°
2026-05-06 20:57 41.25114 28.94852 11915 ft 373 kts 183°
2026-05-06 20:57 41.22473 28.94640 12479 ft 382 kts 185°
2026-05-06 20:57 41.19819 28.94391 13215 ft 386 kts 185°
2026-05-06 20:57 41.17157 28.94138 13948 ft 389 kts 185°
2026-05-06 20:58 41.14429 28.93879 14666 ft 392 kts 185°
2026-05-06 20:58 41.11713 28.93623 15339 ft 396 kts 185°
2026-05-06 20:58 41.08975 28.93367 15992 ft 400 kts 185°
2026-05-06 20:58 41.06195 28.93108 16649 ft 403 kts 185°
2026-05-06 20:59 41.03402 28.93151 17267 ft 407 kts 169°
2026-05-06 20:59 41.00754 28.94432 17878 ft 408 kts 147°
2026-05-06 20:59 40.98573 28.96802 18513 ft 407 kts 133°
2026-05-06 20:59 40.96683 28.99354 19080 ft 411 kts 132°
2026-05-06 21:00 40.94788 29.01943 19607 ft 415 kts 132°